#timestamp,LO_Frequency,Hit 
1498590015.5,286046162.4,N
1498590035.3,286046160.6,N
1498590055.2,286046158.9,N
1498590075.9,286046158.7,N
1498590095.7,286046167.1,N
1498590115.6,286046162.8,N
1498590135.4,286046161.1,N
1498590155.2,286046160.4,N
1498590175.1,286046162.1,N
1498590176.0,286046162.1,N
1498590195.8,286046163.8,N
1498590215.7,286046161.4,N
1498590235.5,286046162.8,N
1498590255.3,286046162.1,N
1498590275.2,286046161.3,N
1498590295.0,286046164.1,N
1498590295.9,286046164.1,N
1498590315.8,286046161.6,N
1498590335.6,286046161.9,N
1498590355.4,286046159.7,N
1498590375.3,286046159.8,N
1498590395.1,286046162.1,N
1498590415.8,286046160.8,N
1498590435.7,286046160.0,N
1498590455.5,286046162.0,N
1498590475.4,286046162.0,N
1498590495.2,286046161.6,N
1498590515.0,286046161.3,N
1498590515.9,286046161.3,N
1498590535.8,286046161.3,N
1498590555.6,286046164.4,N
1498590575.5,286046163.2,N
1498590595.3,286046164.1,N
1498590615.1,286046164.2,N
1498590635.9,286046164.2,N
1498590655.7,286046163.8,N
1498590675.5,286046164.1,N
1498590695.4,286046163.1,N
1498590715.2,286046163.4,N
1498590735.1,286046163.3,N
1498590736.0,286046163.3,N
1498590755.8,286046167.1,N
1498590775.6,286046165.4,N
1498590795.5,286046167.3,N
1498590815.3,286046168.8,N
1498590835.2,286046167.0,N
1498590855.9,286046166.7,N
1498590875.7,286046169.2,N
1498590895.6,286046167.9,N
1498590915.4,286046170.7,N
1498590935.2,286046168.4,N
1498590955.1,286046170.0,N
1498590956.0,286046170.0,N
1498590975.8,286046170.6,N
1498590995.7,286046173.9,N
1498591015.5,286046173.3,N
1498591035.3,286046170.9,N
1498591055.2,286046171.9,N
1498591075.0,286046172.2,N
1498591075.9,286046172.2,N
1498591095.8,286046172.1,N
1498591115.6,286046172.0,N
1498591135.4,286046169.6,N
1498591155.3,286046170.3,N
1498591175.1,286046170.7,N
1498591195.8,286046167.8,N
1498591215.7,286046168.9,N
1498591235.5,286046166.1,N
1498591255.4,286046168.4,N
1498591275.2,286046167.9,N
1498591295.0,286046168.9,N
1498591295.9,286046168.9,N
1498591315.8,286046168.0,N
1498591335.6,286046166.1,N
1498591355.4,286046168.8,N
1498591375.3,286046167.8,N
1498591395.1,286046168.9,N
1498591415.9,286046170.6,N
1498591435.7,286046169.6,N
1498591455.5,286046170.8,N
1498591475.4,286046168.6,N
1498591495.2,286046169.6,N
1498591515.0,286046170.0,N
1498591516.0,286046170.0,N
1498591535.8,286046170.3,N
1498591555.6,286046168.3,N
1498591575.5,286046172.4,N
1498591595.3,286046168.4,N
1498591615.1,286046168.2,N
1498591635.9,286046168.9,N
1498591655.7,286046166.3,N
1498591675.6,286046166.2,N
1498591695.4,286046166.6,N
1498591715.2,286046166.1,N
1498591735.1,286046168.0,N
1498591736.0,286046168.0,N
1498591755.8,286046167.8,N
1498591775.6,286046172.0,N
1498591795.5,286046172.1,N
1498591815.3,286046172.4,N
1498591835.2,286046171.8,N
1498591855.9,286046169.7,N
1498591875.7,286046169.5,N
1498591895.6,286046171.7,N
1498591915.4,286046169.7,N
1498591935.2,286046170.4,N
1498591955.1,286046172.1,N
1498591956.0,286046172.1,N
1498591975.8,286046172.2,N
1498591995.7,286046171.1,N
1498592015.5,286046173.0,N
1498592035.3,286046173.6,N
1498592055.2,286046172.1,N
1498592075.0,286046171.1,N
1498592075.9,286046171.1,N
1498592095.8,286046173.1,N
1498592115.6,286046175.5,N
1498592135.4,286046172.5,N
1498592155.3,286046175.3,N
1498592175.1,286046175.5,N
1498592195.8,286046173.5,N
1498592215.7,286046173.9,N
1498592235.5,286046171.6,N
1498592255.4,286046174.0,N
1498592275.2,286046173.8,N
1498592295.0,286046171.0,N
1498592295.9,286046171.0,N
1498592315.8,286046173.9,N
1498592335.6,286046173.0,N
1498592355.4,286046172.7,N
1498592375.3,286046173.7,N
1498592395.1,286046173.6,N
1498592415.9,286046172.7,N
1498592435.7,286046172.9,N
1498592455.5,286046173.0,N
1498592475.4,286046172.8,N
1498592495.2,286046174.8,N
1498592515.0,286046172.8,N
1498592515.9,286046172.8,N
1498592535.8,286046173.2,N
1498592555.6,286046173.4,N
1498592575.5,286046171.4,N
1498592595.3,286046175.0,N
1498592615.1,286046173.1,N
1498592635.9,286046173.0,N
1498592655.7,286046173.4,N
1498592675.5,286046175.2,N
1498592695.4,286046172.8,N
1498592715.2,286046172.9,N
1498592735.1,286046173.2,N
1498592736.0,286046173.2,N
1498592755.8,286046174.0,N
1498592775.6,286046173.6,N
1498592795.5,286046173.6,N
1498592815.3,286046177.1,N
1498592835.2,286046176.3,N
1498592855.9,286046174.3,N
1498592875.7,286046174.9,N
1498592895.6,286046172.8,N
1498592915.4,286046172.6,N
1498592935.2,286046173.8,N
1498592955.1,286046173.3,N
1498592956.0,286046173.3,N
1498592975.8,286046176.9,N
1498592995.7,286046176.1,N
1498593015.5,286046178.5,N
1498593035.3,286046176.0,N
1498593055.2,286046178.7,N
1498593075.0,286046174.7,N
1498593075.9,286046174.7,N
1498593095.7,286046174.3,N
1498593115.6,286046172.9,N
1498593135.4,286046175.8,N
1498593155.3,286046174.1,N
1498593175.1,286046176.8,N
1498593176.0,286046176.8,N
1498593195.8,286046174.7,N
1498593215.7,286046174.7,N
1498593235.5,286046172.6,N
1498593255.4,286046175.4,N
1498593275.2,286046173.1,N
1498593295.0,286046172.9,N
1498593295.9,286046172.9,N
1498593315.8,286046174.6,N
1498593335.6,286046176.4,N
1498593355.4,286046175.8,N
1498593375.3,286046180.1,N
1498593395.1,286046177.5,N
1498593415.9,286046177.8,N
1498593435.7,286046179.6,N
1498593455.5,286046179.5,N
1498593475.4,286046181.5,N
1498593495.2,286046179.5,N
1498593515.0,286046178.8,N
1498593515.9,286046178.8,N
1498593535.8,286046179.7,N
1498593555.6,286046178.5,N
1498593575.5,286046179.7,N
1498593595.3,286046181.7,N
